,

(GMT )
Al Udeid

Weather History for KQIR - March, 2013

Change the Weather History Date:

Friday, March 22, 2013

  Actual Average Record
Temperature  
Mean Temperature 72 °F -  
Max Temperature 82 °F - - ()
Min Temperature 59 °F - - ()
Cooling Degree Days 6    
Growing Degree Days 22 (Base 50)    
Moisture  
Dew Point 43 °F    
Average Humidity 44    
Maximum Humidity 85    
Minimum Humidity 15    
Precipitation  
Precipitation 0.00 in - - ()
Sea Level Pressure  
Sea Level Pressure 29.91 in    
Wind  
Wind Speed 12 mph ()    
Max Wind Speed 24 mph    
Max Gust Speed 29 mph    
Visibility 6.2 miles    
Events      
Averages and records for this station are not official NWS values.
T = Trace of Precipitation, MM = Missing Value Source: Averaged Metar Reports

Daily Weather History Graph

Daily Weather History Graph

Search for Another Location

Airport or City:

Trip Planner

Search our weather history database for the weather conditions in past years. The results will help you decide how hot, cold, wet, or windy it might be!

Date:

Astronomy

Mar. 22, 2013 Rise Set
Actual Time 5:36 AM AST 5:46 PM AST
Civil Twilight 5:13 AM AST 6:09 PM AST
Nautical Twilight 4:47 AM AST 6:36 PM AST
Astronomical Twilight 4:20 AM AST 7:03 PM AST
Moon 1:17 PM AST (3/22) 1:55 AM AST (3/22)
Length of Visible Light 12h 55m
Length of Day
12h 10m
Waxing Gibbous, 74% of the Moon is Illuminated
Mar 22
Waxing Gibbous
Mar 27
Full
Apr 3
Last Quarter
Apr 10
New
Apr 18
First Quarter

Hourly Weather History & Observations

Time (AST) Temp. Dew Point Humidity Pressure Visibility Wind Dir Wind Speed Gust Speed Precip Events Conditions
12:55 AM 64.0 °F 57.6 °F 79% 29.93 in 6.2 mi NNW 11.5 mph - N/A   Clear
1:55 AM 63.3 °F 57.9 °F 83% 29.91 in 6.2 mi NW 9.2 mph - N/A   Clear
2:55 AM 62.6 °F 58.1 °F 85% 29.92 in 6.2 mi NW 6.9 mph - N/A   Clear
3:55 AM 62.6 °F 56.5 °F 80% 29.92 in 6.2 mi NW 5.8 mph - N/A   Clear
4:55 AM 61.7 °F 54.9 °F 78% 29.94 in 6.2 mi NW 8.1 mph - N/A   Clear
5:55 AM 61.2 °F 54.0 °F 77% 29.95 in 6.2 mi NW 9.2 mph - N/A   Clear
6:55 AM 63.9 °F 54.1 °F 71% 29.96 in 6.2 mi NW 10.4 mph - N/A   Clear
7:55 AM 69.1 °F 53.1 °F 57% 29.97 in 6.2 mi NNW 13.8 mph - N/A   Clear
8:55 AM 74.5 °F 46.8 °F 37% 29.97 in 6.2 mi NNW 21.9 mph - N/A   Clear
9:55 AM 77.9 °F 40.5 °F 26% 29.96 in 6.2 mi NNW 23.0 mph 28.8 mph N/A   Partly Cloudy
10:55 AM 79.9 °F 36.9 °F 21% 29.94 in 6.2 mi NNW 21.9 mph 25.3 mph N/A   Partly Cloudy
11:55 AM 81.3 °F 33.6 °F 18% 29.92 in 6.2 mi NNW 21.9 mph 27.6 mph N/A   Clear
12:55 PM 82.4 °F 30.2 °F 15% 29.90 in 6.2 mi NW 24.2 mph 28.8 mph N/A   Clear
1:55 PM 82.6 °F 32.9 °F 17% 29.88 in 6.2 mi NW 24.2 mph - N/A   Clear
2:55 PM 81.9 °F 32.0 °F 16% 29.87 in 6.2 mi NW 18.4 mph - N/A   Clear
3:55 PM 80.6 °F 31.3 °F 17% 29.87 in 6.2 mi NW 19.6 mph - N/A   Clear
4:55 PM 78.6 °F 30.7 °F 17% 29.87 in 6.2 mi NNW 17.3 mph - N/A   Clear
5:55 PM 75.2 °F 35.2 °F 23% 29.87 in 6.2 mi NNW 15.0 mph - N/A   Clear
6:55 PM 73.2 °F 36.7 °F 26% 29.88 in 6.2 mi North 11.5 mph - N/A   Clear
7:55 PM 70.7 °F 39.0 °F 32% 29.88 in 6.2 mi North 12.7 mph - N/A   Clear
8:55 PM 67.6 °F 40.3 °F 37% 29.89 in 6.2 mi North 8.1 mph - N/A   Clear
9:55 PM 64.9 °F 41.2 °F 42% 29.88 in 6.2 mi NNW 6.9 mph - N/A   Clear
10:55 PM 61.5 °F 40.3 °F 46% 29.88 in 6.2 mi WNW 8.1 mph - N/A   Clear
11:55 PM 59.0 °F 41.2 °F 52% 29.88 in 6.2 mi West 4.6 mph - N/A   Clear